Probability
0 0 0 0 0 0 0 0 0 0 0 0 0 0 0 0 0 0 0 0 0 0 0 0 0 0 0 0 0 0 0 0 0 0 0 0 0 0 0 0 0 0 0 0
0 0 0 0 0 0 0 0 0 0 0 0 0 0 0 0 0 0 0 0 0 0 0 0 0 0 0 0 0 0 0 0 0 0 0 0 0 0 0 0 0 0 0 0
0 0 0 0 0 0 0 0 0 0 0 0 0 0 0 0 0 0 0 0 0 0 0 0 0 0 0 0 0 0 0 0 0 0 0 0 0 0 0 0 0 0 0 0
0 0 0 0 0 0 0 0 0 0 0 0 0 0 0 0 0 0 1 1 1 1 1 1 0 0 0 0 0 0 0 0 0 0 0 0 0 0 0 0 0 0 0 0
0 0 0 0 0 0 0 0 0 0 0 0 0 0 0 0 0 1 1 0 1 1 2 2 1 1 0 0 0 0 0 0 0 0 0 0 0 0 0 0 0 0 0 0
0 0 0 0 0 0 0 0 0 0 0 0 0 0 0 0 0 0 0 0 1 2 3 4 3 1 0 0 0 0 0 0 0 0 0 0 0 0 0 0 0 0 0 0
0 0 0 0 0 0 0 0 0 0 0 0 0 0 0 0 0 0 0 1 1 2 5 6 4 1 0 0 0 0 0 0 0 0 0 0 0 0 0 0 0 0 0 0
0 0 0 0 0 0 0 0 0 0 0 0 0 0 0 0 0 0 1 2 2 3 5 5 3 1 0 0 0 0 0 0 0 0 0 0 0 0 0 0 0 0 0 0
0 0 0 0 0 0 0 0 0 0 0 0 0 0 0 0 0 0 1 2 3 3 4 3 3 2 1 0 0 0 0 0 0 0 0 0 0 0 0 0 0 0 0 0
0 0 0 0 0 0 0 0 0 0 0 0 0 0 0 0 0 0 1 2 3 3 2 2 2 3 1 0 0 0 0 0 0 0 0 0 0 0 0 0 0 0 0 0
0 0 0 0 0 0 0 0 0 0 0 0 0 0 0 0 0 0 1 3 3 3 2 1 2 3 2 1 0 0 1 1 0 0 0 0 0 0 0 0 0 0 0 0
0 0 0 0 0 0 0 0 0 0 0 0 0 0 0 0 0 0 1 4 4 2 1 1 2 3 3 1 0 0 1 2 1 0 0 0 0 0 0 0 0 0 0 0
0 0 0 0 0 0 0 0 0 0 0 0 0 0 0 0 0 0 2 4 4 2 0 2 3 4 2 1 0 0 1 2 1 0 0 0 0 0 0 0 0 0 0 0
0 0 0 0 0 0 0 0 0 0 0 0 0 0 0 0 0 0 1 3 3 1 0 2 5 4 2 1 0 0 0 1 1 0 0 0 0 0 0 0 0 0 0 0
0 0 0 0 0 0 0 0 0 0 0 0 0 0 0 0 0 0 1 2 3 2 1 3 4 4 2 1 0 0 0 0 0 0 0 0 0 0 0 0 0 0 0 0
0 0 0 0 0 0 0 0 0 0 0 0 0 0 0 0 0 0 1 2 2 2 2 3 3 2 2 1 0 0 0 0 0 0 0 0 0 0 0 0 0 0 0 0
0 0 0 0 0 0 0 0 0 0 0 0 0 0 0 0 0 0 0 1 1 1 2 3 3 2 1 0 0 0 0 0 0 0 0 0 0 0 0 0 0 0 0 0
0 0 0 0 0 0 0 0 0 0 0 0 0 0 0 0 0 0 0 0 0 1 2 3 3 2 1 0 0 0 0 0 0 0 0 0 0 0 0 0 0 0 0 0
0 0 0 0 0 0 0 0 0 0 0 0 0 0 0 0 0 0 0 0 0 0 1 2 1 1 1 0 0 0 0 0 0 0 0 0 0 0 0 0 0 0 0 0
0 0 0 0 0 0 0 0 0 0 0 0 0 0 0 0 0 0 0 0 0 0 0 0 0 0 0 0 0 0 0 0 0 0 0 0 0 0 0 0 0 0 0 0
0 0 0 0 0 0 0 0 0 0 0 0 0 0 0 0 0 0 0 0 0 0 0 0 0 0 0 0 0 0 0 0 0 0 0 0 0 0 0 0 0 0 0 0
0 0 0 0 0 0 0 0 0 0 0 0 0 0 0 0 0 0 0 0 0 0 0 0 0 0 0 0 0 0 0 0 0 0 0 0 0 0 0 0 0 0 0 0
0 0 0 0 0 0 0 0 0 0 0 0 0 0 0 0 0 0 0 0 0 0 0 1 1 1 0 0 0 0 0 0 0 0 0 0 0 0 0 0 0 0 0 0
0 0 0 0 0 0 0 0 0 0 0 0 0 0 0 0 0 0 0 0 0 0 0 1 1 1 0 0 0 0 0 0 0 0 0 0 0 0 0 0 0 0 0 0
0 0 0 0 0 0 0 0 0 0 0 0 0 0 0 0 0 0 0 0 0 0 0 0 0 0 0 0 0 0 0 0 0 0 0 0 0 0 0 0 0 0 0 0
0 0 0 0 0 0 0 0 0 0 0 0 0 0 0 0 0 0 0 0 0 0 0 0 0 0 0 0 0 0 0 0 0 0 0 0 0 0 0 0 0 0 0 0
Wind_Speed
6 5 5 6 7 6 5 6 6 6 8 8 8 9 11 12 11 10 10 10 9 9 10 9 8 7 5 4 5 7 7 6 4 2 2 2 2 3 3 3 3 3 4 4
4 6 5 4 4 5 5 5 4 3 6 6 7 10 10 11 12 11 11 12 10 10 10 9 9 8 6 5 5 7 6 5 5 2 2 3 3 3 3 2 3 4 5 5
6 3 5 5 5 6 4 4 4 4 2 4 5 7 9 11 11 11 10 11 12 12 13 11 9 8 7 5 5 6 7 6 5 4 3 3 3 2 2 3 3 4 4 5
3 4 5 6 5 5 4 3 3 5 4 4 7 4 8 11 11 12 11 10 10 10 12 11 10 8 7 6 5 6 6 6 5 5 3 3 2 2 2 3 2 3 4 4
3 5 6 6 5 5 3 3 3 4 4 4 7 5 7 12 13 13 13 11 10 10 11 11 10 9 7 6 5 5 6 7 6 5 3 2 2 2 2 3 3 3 3 3
5 4 5 5 4 4 3 2 3 4 3 6 10 7 7 12 16 16 15 13 11 11 10 10 10 8 7 6 6 5 7 6 5 4 4 3 4 3 3 3 2 2 2 2
6 7 6 4 5 6 6 4 2 3 4 6 9 8 7 11 15 17 16 15 13 11 10 11 11 9 8 7 7 6 7 6 5 3 4 4 3 3 3 3 2 2 2 2
5 6 9 8 7 6 8 8 3 3 3 3 6 7 5 9 11 13 14 14 13 12 11 11 11 10 9 8 8 7 7 7 5 3 3 4 4 2 3 2 3 2 3 3
2 3 7 9 8 7 6 6 4 2 4 4 5 4 4 7 10 11 13 14 13 12 11 11 12 11 10 9 8 8 8 7 6 4 4 4 4 4 3 2 3 3 3 3
3 3 5 7 7 6 5 4 2 2 2 3 4 7 6 11 12 11 12 13 14 13 13 12 11 11 10 9 8 8 8 7 6 5 4 4 4 4 3 2 3 3 3 3
6 4 5 7 7 8 8 6 4 2 2 2 1 2 3 11 12 12 12 12 13 13 12 11 10 10 10 9 8 7 7 7 6 6 5 5 3 3 3 3 3 1 2 3
5 2 4 7 7 8 8 8 6 3 3 2 1 3 2 6 9 11 11 11 11 11 11 11 11 11 10 10 9 8 7 7 6 6 6 5 4 3 4 3 2 0 2 2
2 3 3 3 4 7 8 9 8 6 4 3 2 3 2 5 6 8 11 11 11 11 11 11 10 10 10 10 9 8 8 7 6 6 6 5 5 4 4 4 3 1 2 2
3 4 4 4 4 7 9 10 10 8 5 5 4 4 4 6 7 8 10 11 12 12 11 11 10 10 10 10 9 9 8 8 7 6 5 5 5 4 3 4 3 2 3 2
5 6 6 8 8 8 9 10 11 11 10 7 5 5 5 5 7 9 11 12 13 13 12 12 11 10 10 10 9 10 9 8 8 7 5 5 5 4 4 4 3 3 3 3
8 8 8 8 8 9 9 10 12 13 11 10 9 8 4 3 6 8 10 12 13 13 13 13 12 12 12 11 10 10 10 8 8 7 6 5 5 5 5 5 3 3 3 3
8 9 8 7 7 7 8 10 12 11 11 9 9 7 3 5 6 9 10 11 12 12 12 12 12 12 12 12 11 11 11 9 9 8 7 6 5 6 5 5 4 3 3 3
8 8 5 6 7 8 5 5 6 6 6 6 6 5 3 3 4 5 7 9 10 11 12 12 11 11 11 11 10 10 11 10 9 8 8 7 6 6 5 5 5 4 3 3
7 6 5 5 6 7 4 3 4 4 4 5 5 4 3 3 4 4 6 8 9 10 10 11 11 11 11 12 12 12 11 10 9 9 9 8 8 7 6 5 5 4 4 4
5 6 6 6 5 5 1 4 4 1 2 1 2 2 2 4 3 3 4 6 7 7 8 9 10 11 11 11 11 12 12 11 10 9 9 8 8 8 7 6 5 4 4 3
7 6 7 7 7 4 2 3 2 1 1 2 2 2 2 2 2 3 4 5 5 5 7 8 10 10 9 10 11 11 10 10 9 9 8 8 7 7 7 5 4 4 4 3
7 6 7 7 7 2 3 2 2 3 4 3 3 3 2 2 3 4 5 5 5 5 6 7 8 8 8 10 10 10 9 9 9 9 8 8 7 6 6 6 4 4 4 4
5 3 2 2 1 3 3 4 4 4 5 5 5 4 3 2 2 2 4 5 5 6 6 5 7 8 8 8 9 9 8 9 10 9 8 7 7 6 6 6 5 4 4 4
3 2 2 1 2 3 3 3 3 3 4 5 5 4 3 2 1 2 4 4 4 5 6 6 7 7 7 7 7 7 9 10 11 10 8 7 7 6 6 5 5 4 4 4
1 1 2 2 1 1 2 2 3 3 4 4 4 4 3 3 1 2 3 4 4 4 5 6 6 7 7 7 7 7 9 10 10 9 8 7 6 6 6 5 3 4 4 5
3 3 2 1 1 1 2 4 4 4 3 3 3 2 2 2 1 1 3 3 4 5 5 5 6 6 7 7 7 7 9 10 10 8 7 6 5 5 5 5 4 3 4 6
Wind_Direction
207 223 226 222 225 263 266 237 213 190 183 186 176 171 177 180 179 175 175 173 177 170 164 151 139 129 131 132 127 127 138 131 121 109 98 94 89 83 71 72 40 34 40 36
208 230 238 235 234 254 254 230 200 176 198 184 180 181 189 186 184 184 183 178 177 171 158 150 150 153 154 151 156 144 128 119 113 105 105 111 96 93 94 80 54 44 42 23
236 219 204 214 223 230 236 230 204 178 216 191 189 192 191 192 189 185 193 185 181 174 160 159 161 159 152 164 169 135 126 125 121 108 75 71 70 80 97 92 62 50 51 39
246 247 216 209 219 227 229 228 232 188 201 211 203 207 205 192 190 188 190 191 188 176 162 161 162 158 162 168 157 132 124 117 109 108 95 107 106 92 84 102 118 90 66 56
234 213 216 215 217 216 224 232 228 210 221 250 225 216 217 191 193 193 192 192 186 173 162 161 161 159 160 149 128 115 111 109 106 108 112 96 93 102 98 97 102 99 86 78
246 220 218 224 205 204 181 214 227 225 241 243 231 223 216 197 194 192 189 187 182 172 166 158 151 145 142 131 123 115 110 109 116 133 141 128 114 112 104 99 103 113 113 94
218 211 209 211 194 184 192 191 191 195 214 239 218 225 227 198 193 188 183 181 176 170 163 155 152 151 150 145 140 131 125 127 141 162 159 141 133 128 121 122 104 95 105 86
218 207 196 200 205 199 207 208 205 211 219 241 208 221 217 187 182 178 174 172 171 168 163 157 156 155 156 153 150 147 142 145 155 170 149 120 114 97 92 88 107 89 92 99
240 235 194 193 201 208 208 218 231 270 270 245 215 192 158 160 163 169 168 167 169 167 161 159 157 159 159 156 155 153 150 153 158 163 130 113 109 96 101 95 92 97 97 108
221 234 196 179 198 213 225 221 216 218 254 240 222 202 181 169 170 170 169 168 166 167 164 160 158 158 156 154 158 160 159 156 156 153 140 124 107 101 91 82 74 91 95 84
225 213 192 189 202 209 211 220 216 220 245 279 254 249 192 172 171 170 171 171 165 163 160 158 158 156 152 152 159 162 159 152 153 147 129 124 125 128 118 96 88 85 126 134
215 215 217 215 212 220 220 225 218 224 242 219 281 292 287 164 166 167 169 167 161 157 156 155 155 156 156 159 165 164 158 150 148 142 141 150 148 154 143 131 131 116 78 89
235 192 196 220 220 217 224 225 231 237 255 250 214 246 237 154 156 162 161 159 155 154 154 155 156 159 160 162 164 159 156 149 146 149 157 156 154 162 148 138 134 118 89 74
281 250 210 218 238 218 222 221 219 231 242 255 230 227 221 172 161 159 157 159 157 161 160 160 159 161 162 164 166 160 157 151 153 157 159 155 151 153 140 123 132 122 99 72
241 259 249 238 235 227 222 223 217 226 241 258 271 256 219 180 168 166 164 163 164 167 167 166 167 167 165 165 167 161 155 153 155 156 157 157 148 138 121 113 110 99 95 90
227 265 274 262 240 234 231 224 227 231 238 246 254 263 222 187 171 169 170 168 170 171 172 171 172 171 171 168 169 158 155 155 154 157 159 152 146 134 131 132 129 107 89 80
219 241 268 278 258 237 245 230 224 226 230 237 246 255 209 192 182 176 173 174 176 175 174 173 176 177 175 174 173 164 159 158 161 162 157 151 149 142 146 141 127 121 112 97
238 246 254 269 268 254 250 211 200 217 234 237 249 263 240 199 167 164 166 173 179 177 174 175 175 175 173 172 169 161 157 162 165 165 158 155 151 146 144 140 143 148 139 129
233 251 260 258 257 268 253 193 185 206 238 237 236 239 217 180 155 170 180 181 181 178 176 175 176 174 173 172 169 163 162 167 170 167 160 158 156 154 155 159 163 162 153 150
223 246 254 270 271 267 331 102 104 206 254 273 237 212 172 152 170 175 165 165 167 165 166 169 170 170 171 169 165 166 168 171 173 164 159 157 158 160 163 166 165 152 145 150
200 219 236 256 266 271 69 103 148 228 40 36 55 58 108 140 129 117 120 134 147 151 157 160 164 167 166 162 162 168 170 173 164 149 148 151 156 159 159 158 151 146 146 152
206 210 220 229 241 242 97 130 63 35 23 37 55 58 67 81 77 103 121 131 140 142 150 155 158 157 155 157 162 171 173 159 143 140 144 149 153 160 155 145 149 150 150 161
222 223 232 227 133 97 82 71 56 24 15 29 38 40 39 63 67 104 134 140 145 149 154 155 151 150 153 158 165 172 161 144 141 143 148 152 152 150 147 153 161 161 162 171
218 177 209 249 120 108 89 71 60 41 18 17 23 32 29 32 56 123 138 142 149 156 155 152 149 155 161 164 165 160 145 143 146 153 157 159 161 158 158 162 169 172 176 183
315 272 224 237 240 110 98 77 47 38 29 19 15 19 19 14 31 115 137 143 149 148 145 151 162 165 166 161 161 155 149 149 153 158 163 167 164 162 165 164 170 176 182 181
277 276 243 237 325 351 71 68 43 28 18 15 9 8 13 12 3 103 129 137 147 150 152 159 164 167 169 166 167 161 155 156 160 165 169 168 165 164 165 162 167 164 170 173